Meteo Giornale » Osservazioni meteo Stati Uniti (USA) » Bridgeport Sikorsky Memorial

ore: 11:52 - Osservazioni Meteo Bridgeport Sikorsky Memorial
Lat. 41° 9' N Lon. 73° 7' W Alt. 3 metri s.l.m.

coperto America/New_York

23 °C

Coperto

Temp. 24 Ore

19 °C

24 °C

Est/Nord-Est

18.5 Km/h

Dew point 19 °C

Umidità 78 %

Visibilità  10 Km

Il sole sorge alle ore 06:34

Il sole tramonta alle ore 18:59

Data e Ora Cielo e Fenomeni T °C DP °C Um. % Pres. hPa Vis. km Vento km/h
Oggi h: 11:52 coperto Coperto 23 19 78 1024 10 E/NE 18.5
Oggi h: 10:52 coperto Coperto 22 19 83 1024 10 N/NE 16.7
Oggi h: 09:52 coperto Coperto 22 18 78 1025 10 NE 18.5
Oggi h: 08:52 coperto Coperto 21 18 82 1025 10 N/NE 16.7
Oggi h: 07:52 coperto Coperto 20 18 88 1025 10 N/NE 13
Oggi h: 06:52 foschia Foschia 19 18 93 1025 10 NE 18.5
Oggi h: 05:52 foschia Foschia 19 18 93 1024 6 NE 13
Oggi h: 04:52 coperto Coperto 19 18 93 1024 14 NE 14.8
Oggi h: 03:52 coperto Coperto 20 18 88 1024 10 NE 13
Oggi h: 03:45 coperto Coperto 20 18 88 1024 10 N/NE 13
Oggi h: 02:52 coperto Coperto 21 18 82 1024 10 NE 16.7
Oggi h: 01:52 coperto Coperto 21 19 88 1024 10 E/NE 20.3
Oggi h: 00:52 coperto Coperto 22 19 83 1024 10 E/NE 16.7
Oggi h: 00:10 coperto Coperto 22 19 83 1024 10 E/NE 14.8
Ieri h: 23:52 coperto Coperto 22 19 83 1024 10 E/NE 16.7
Ieri h: 22:52 coperto_pioggia Pioggia Debole 22 19 83 1024 10 E 29.6
Ieri h: 22:42 coperto_pioggia Pioggia Debole Foschia 22 20 88 1024 6 E 25.9
Ieri h: 22:27 coperto_pioggia Pioggia Foschia 22 19 83 1024 3 E 24
Ieri h: 21:52 coperto Coperto 22 19 83 1024 10 E 22.2
Ieri h: 21:50 coperto Coperto 22 19 83 1024 10 E/NE 18.5
Ieri h: 20:52 coperto Coperto 23 19 78 1024 10 E/NE 18.5
Ieri h: 19:52 coperto Coperto 23 19 78 1024 10 E 14.8
Ieri h: 19:12 coperto Coperto 23 19 78 1024 10 E/NE 13
Ieri h: 18:52 coperto Coperto 23 19 78 1024 10 E 14.8
Ieri h: 17:52 coperto Coperto 23 19 78 1023 10 E 20.3
Ieri h: 16:52 coperto Coperto 23 19 78 1023 10 E 22.2
Ieri h: 15:52 coperto Coperto 23 19 78 1023 10 E 20.3
Ieri h: 14:52 coperto Coperto 24 19 73 1023 10 E 18.5
Ieri h: 13:52 coperto Coperto 23 19 78 1023 10 E 14.8
Ieri h: 12:52 coperto_pioggia Pioggia Debole 22 19 83 1024 10 E/NE 14.8